"Pseudo-MPEC" for C3XUF62

Created 2020 Nov 30 17:07:04 UT using Find_Orb

Click here for an explanation of pseudo-MPECs

 
 Astrometry: 
     C3XUF62  C2020 08 29.47417 03 31 51.47 +08 37 37.6    ~BGNb 22.5 GVNEOCPG96
     C3XUF62  C2020 08 29.47987 03 31 51.66 +08 37 37.5    ~BGNb 22.2 GVNEOCPG96
     C3XUF62  C2020 08 29.48556 03 31 51.75 +08 37 36.8    ~BGNb 21.8 GVNEOCPG96
     C3XUF62  C2020 08 29.49126 03 31 51.90 +08 37 37.2    ~BGNb 21.8 GVNEOCPG96
     C3XUF62  C2020 09 21.43424 03 38 25.88 +07 52 26.8    ~BGNb 21.3 GVNEOCPG96
     C3XUF62  C2020 09 21.44001 03 38 25.95 +07 52 26.1    ~BGNb 21.5 GVNEOCPG96
     C3XUF62  C2020 09 21.44576 03 38 26.00 +07 52 24.7    ~BGNb 21.5 GVNEOCPG96
     C3XUF62  C2020 10 14v.:56g\??LrDigC]/orF!uBb0t2YO/gix#14vP:nt]69sHPlIVGxF52
     C3XUF62  C2020 10 14xcbMvB_/E7gVKc,f2[IHNPuPAy6hRiR:(\rgF=$3N)P4oosw#:N]F52
     C3XUF62  C2020 10 14['s$YbVNX^0P%0H]wvfN06DZ/cW2#_I8gB_LN=d_HiIpGlGOV7sjF52
     C3XUF62  C2020 10 14F6H29-5,NWHOO#49\]fRcgxd.!iy!!gsb%7Z(@PWCJ:-Z,KG*5=mF52
     C3XUF62  C2020 10 16.33494503 35 39.78 +06 33 56.4    ~BGE7 20.42GVNEOCPG96
     C3XUF62  C2020 10 16.34010603 35 39.65 +06 33 55.4    ~BGE7 20.64GVNEOCPG96
     C3XUF62  C2020 10 16.34527003 35 39.56 +06 33 54.7    ~BGE7 20.44GVNEOCPG96
     C3XUF62  C2020 10 16.35043603 35 39.44 +06 33 53.6    ~BGE7 20.14GVNEOCPG96
     C3XUF62  C2020 10 197`F8fG:/\spU@Gfe7X@D8Lo91+V$vJh]KHw4+J5!/lMh)_b(w4QjF52
     C3XUF62  C2020 10 19E6F#2='!T,I+A.UV0[?2NmT1Rm*+Et*[Astrometryu.nliIFvLQF52
     C3XUF62  C2020 10 19=[`MEBlWJ9f5F\)PgN$rcyZredacted;WE#ZkyavpB7wA3jR]]L)F52
     C3XUF62  C2020 10 24!/3B]8:GkNX7Rm\+T3VvJS=]wot5hFCVRemDZn5b'L:t/NB0$FcuF52
     C3XUF62  C2020 10 24);D#P2#HU3Tu'xUO4=V`2PIf$Ev(k9#N.Q^4/aDB;?#:N-NEch1nF52
     C3XUF62  C2020 10 24lwr7MU]g21u4=4#O!j@Z*Hg2G*UYxG0q8^O%laT[XB^^q_`Yt[a3F52
     C3XUF62  C2020 10 24(lh;jiL;[du1ChLQ#*taBE\a3WbnrOPql/`r$u6T,Yv2dyp^:8*:F52
     C3XUF62  C2020 11 05.44980703 26 44.71 +05 28 11.6    ~BGE7 20.42GVNEOCPG96
     C3XUF62  C2020 11 05.45492403 26 44.60 +05 28 11.0    ~BGE7 19.91GVNEOCPG96
     C3XUF62  C2020 11 05.46000903 26 44.39 +05 28 10.2    ~BGE7 20.16GVNEOCPG96
     C3XUF62  C2020 11 05.46511703 26 44.20 +05 28 08.9    ~BGE7 20.06GVNEOCPG96
     C3XUF62  C2020 11 16.34502203 20 35.20 +05 00 45.5    ~BGC7 20.10GVNEOCPG96
     C3XUF62  C2020 11 16.35015503 20 35.01 +05 00 44.7    ~BGC7 19.73GVNEOCPG96
     C3XUF62  C2020 11 16.35529603 20 34.85 +05 00 44.1    ~BGC7 19.82GVNEOCPG96
     C3XUF62  C2020 11 16.36043203 20 34.65 +05 00 43.6    ~BGC7 19.86GVNEOCPG96
     C3XUF62  C2020 11 16.44017003 20 31.84 +05 00 33.0    ~BGC7 20.15GVNEOCPI52
     C3XUF62  C2020 11 16.45010003 20 31.47 +05 00 32.7    ~BGC7 20.30GVNEOCPI52
     C3XUF62  C2020 11 16.45623403 20 31.29 +05 00 31.2    ~BGC7 19.68GVNEOCPI52
     C3XUF62  C2020 11 16.47338503 20 30.71 +05 00 29.7    ~BGC7       VNEOCPI52
     C3XUF62 |C2020 11 17OEM`-AX\KQS=:mii%LO8Hb#!X;;KEUE\:RWLi)#vF=Dj63obbe$eH06
     C3XUF62 |C2020 11 17f](b7b%tV1Q(4,Q[Iu%9.t$\A)!-@\5('DA!R,(SAh^VlY[+A/aEH06
     C3XUF62 KC2020 11 17F(NG6H]%Py`t@atMHWZCEy7w4wC^=igFkWn(6E(w?8nO`%/)JM\$711
     C3XUF62 KC2020 11 17p9vnw:7`\OTefSG=MIUuSpSJj6@H`YET19FOS(YamE;:bBq=qg=3711
     C3XUF62 |C2020 11 17AAW1bKu%,rL6%.ofn[V#ZMt+o7?jYP!uVLp5,Wa2mfA-w0hm@FNGH06
     C3XUF62 KC2020 11 17@3XR`k)af9h6)Nmj;:1603@`:,.b'BX9N?*1ZJK:.+bRFc\3[o-v711
     C3XUF62 KC2020 11 17O(^cvTo`@*dE`%Skg_kC#'0^PrZt=d8Dh]R8Crv.=\gJ(.0MQ3UKN51
     C3XUF62 KC2020 11 17+4`1.WO7sBtZxVpmGtOU*,qWHCc6]Nx:$xQQAWUx0f$ZYKTbZ9dfN51
     C3XUF62 KC2020 11 170vi-_YDgX^E0jw+p.anrML,`Q;H1TfQbt!TJCfcclickhvS?(#NCN51
     C3XUF62 KC2020 11 17KJwa0N29VRjNo?TpM%m9h\iu!Kx)nI^E((GnAW!e+p*:@1?4JapnN51
     C3XUF62 KC2020 11 176K?4/h7m`k8is97nJ8YU.Ihere)Oh=T)gH?lA-!/xnpi`9byPV#CN51
     C3XUF62 KC2020 11 17j3+b\4k%+y.LGN?i5@R4iH#)af]lv`5@s@\V/N[:MCgOK`raZJuIL01
     C3XUF62 KC2020 11 17sx-4joP;iJ6LZE;9'8ZVd@NK!SF$Lx1`=!gf,\UVr'jq[+1cwksaL01
     C3XUF62 KC2020 11 18f2gUXE'W1ANfb:rEo(qwri2WuUEI1K)Raxarc(F)E:j0^aa1*sh*711
     C3XUF62 KC2020 11 18IwPrnawwn#8l1/18ELni6S+wd5J,@s^JEReB)YEA%=,h'cjOS(^W711
     C3XUF62 KC2020 11 18FM'-GUkqw7CJh!*`.r$LSgp)tP12-2`h?aCdYDaJgAt/B$oPQs*;711
     C3XUF62 1C2020 11 18L3iyVc1pR*Wunjs/n`PCJr!s#RmY]b,p+.o;LZ1$dCSX3MA\gq%7246
     C3XUF62 1C2020 11 18D1GYXtffYu6u!J`%5)XGq_iSM:X^^)_q;fg5,.o[DD\H*a]ht__3246
     C3XUF62 1C2020 11 18Nl`B$Y'bf4$,!m9/N-`1VELmgFRLZZrtWv-^lJ$(e\uXkl,S,=cQ246
     C3XUF62 1C2020 11 18j0jcD$wpSTF`l9dK?l6!BnG4TT@L=LMD`jCeB9rP`XwywHri^N1,246
     C3XUF62 1C2020 11 18OE:)@fF\'jCr3bn'Zxglu@iClY[@DAoD\RdR0_ZT\,hDToXR6$(0246
     C3XUF62 KC2020 11 18nKV'aw%\FIygu+wZe,pqtn%CLX3P`wxeSY*_c+.[*vV5MjUY`-.,K63
     C3XUF62 KC2020 11 18*4qeXn=Cw$,6g7DHutYe#@[CL,MaJy(mCIt*VdKG/MC],b_0(uN(K61
     C3XUF62 KC2020 11 18riy;mxAPF?Vom:%XeMA8J$y2/nm7vek?-3=Nc=Gs2;g8sR?:DirCK61
     C3XUF62 KC2020 11 18Uj,I]wyi?uP,l$o/BuA/3n;,.9uZ7*KwSbu-?dL::2,r[ox#jsfXK61
     C3XUF62 KC2020 11 18g'dOt:d1Di/RQ*_JHew$hXsA[d:!B\\`1VuhydwQp[6t)!9yxqg0K63
     C3XUF62 KC2020 11 18k.E/#F+_(kJ^FFEd#P4^f/AA@ssb)dJNMMtXfV$7:$]AI!xy67?E204
     C3XUF62 KC2020 11 182`G-3@o_?j2GE3t#Jh'-c*c]ySDeErOeAk$a57bS6u'9Fo@-3JpO204
     C3XUF62 KC2020 11 19-o\cmG%8t.X;S\VhMuc::KvG^FrgSAI5Ku'E]_:6vKXIiSg]/iQ[204
     C3XUF62 KC2020 11 20fysfK;tldj[5@c4#O:xrCi[522JRex?69m)#]dm#'''*Vu(0m^.s858
     C3XUF62 KC2020 11 20Mic`!3lg11W$X:(Yu?`D3u'CCeQ9t%SvmE=X1N]Ci?_:Yp3a]/h'858
     C3XUF62 KC2020 11 20RS2HFa(S7uST-\ja%/!'#ZDNm_1VMl.ZY1[@9hWhAeu9G@!').-6858
     C3XUF62 HC2020 11 20.28820 03 18 19.28 +04 53 16.5    ~BK7q 20.0 RoNEOCP691
     C3XUF62 HC2020 11 20.29829 03 18 18.92 +04 53 15.6    ~BK7q 20.1 RoNEOCP691
     C3XUF62 HC2020 11 20.30827 03 18 18.57 +04 53 14.1    ~BK7q 20.0 RoNEOCP691
     C3XUF62 KC2020 11 21,5]kF:r9H-r3B8L0In,4jE5dFm%T81ivW6j))8j!2mRCGO*kt?UuL06
     C3XUF62 KC2020 11 21\QaWDL@]6dgsVWN\DA5A76pu[D;6sQlKlIor$iVnSwh/.lR8[sOKL06
     C3XUF62 KC2020 11 21C%,htB;Khfq85i$E01BRAQog]-W6M;YB5U^:CJ15`UQTPQHK\=8?215
     C3XUF62 KC2020 11 21$:vogQ0sU1nx\Z4v5?nC5Dt^IVU;vZULOv#9vQm+bb*xvNe]C.MAB49
     C3XUF62 1C2020 11 21)1k9f,5OlsCCJ6NgR2?NPH9hkH;f+1DFr4GhPv4Is1N0`oL4kW\^246
     C3XUF62 1C2020 11 21E'`:HktYj@Q$gs..W7?_!YT,C/c%Gba.V/SPhCpt!8m/VUAGuIT[246
     C3XUF62 KC2020 11 21g:XPW7w?x_Oa9%*\P$^hKGx'hEVoHd*5%b?\yqVRV+9oeC,o!D7'215
     C3XUF62 1C2020 11 21k5bZ4)](gLaOlx(=T4s9NCXqOMMMdTrS,B45%p+X+Q0hndBWPe6n246
     C3XUF62 1C2020 11 21=)A\]95yF1g5j]lv;wMK?viB!L]7N+.WLjn?G?k4/\r!Xfor3R_9246
     C3XUF62 1C2020 11 21r5\:-]@jNIu]Z!MOu-vny1#[]XmJ1Rc]hQO]q@2@oI!Kv*^n7kLr246
     C3XUF62 KC2020 11 21N^eyoq,9]i/cf)Xi^]?h]#o,::2fip+B@W^Lp!d9UsuV5d;r])0;215
     C3XUF62 KC2020 11 21R/explanationm(v6x[X8kc=/L\%!8neS@#7PiFM\NIrM_PkwG6`B49
     C3XUF62 KC2020 11 23y=k[vltj2'05a-.aZD6^q=C!b@HS[gRR24NXbDiN3.i@p+!:u_elL07
     C3XUF62 KC2020 11 23\gTV5a7V:CB(qUj5y3guaakF`A!K378Bn()+8w)5Yj#jC7b02#LXL07
     C3XUF62  C2020 11 25.12915403 15 36.41 +04 46 11.8    ~BP3q 19.67GVNEOCPG96
     C3XUF62  C2020 11 25.13385803 15 36.22 +04 46 12.0    ~BP3q 19.83GVNEOCPG96
     C3XUF62  C2020 11 25.13858003 15 36.09 +04 46 11.7    ~BP3q 20.00GVNEOCPG96
     C3XUF62  C2020 11 25.14328703 15 35.92 +04 46 11.3    ~BP3q 19.86GVNEOCPG96
     C3XUF62 KC2020 11 26JhkjCY'6UOr8506Eois.3dpwvtI.x8LC\J=`1mXJ(B`B/e\'xFQP858
     C3XUF62 KC2020 11 26w%S+#E2G[\#Sv5._\PE\L.8k'jk3th8(NM`c/v@brUb:D09Z7Z)G858

Station data:
(204) Schiaparelli Observatory  (N45.867933 E8.770800)  Italy.  Observer L.
   Buzzi. 0.60-m f/4.64 Newtonian + CCD.
(215) Buchloe  (N48.017293 E10.732800)  Germany.  Observer W. Hasubick.
   0.44-m f/4.6 reflector + CCD.
(246) Klet Observatory-KLENOT  (N48.863293 E14.288100)  Czech Republic.
   1.06-m KLENOT telescope.
(691) Steward Observatory, Kitt Peak - Spacewatch  (N31.962174 W111.600327)
   US/Arizona.  Observer J. V. Scotti. 0.9-m f/3 reflector + CCD.
(711) McDonald Observatory, Fort Davis  (N30.671481 W104.021500)  US/Texas.
   0.76-m f/3.0 reflector.
(858) Tebbutt Observatory, Edgewood  (N35.093872 W106.220000)  US/New Mexico.
(B49) Paus Observatory, Sabadell  (N41.551035 E2.112500)  Spain.
(F52) Pan-STARRS 2, Haleakala  (N20.707384 W156.255910)  US/Hawaii. 1.8-m
   Ritchey-Chrétien + CCD.
(G96) Mt. Lemmon Survey  (N32.442754 W110.788720)  US/Arizona.  Observers T.
   A. Pruyne, B. M. Africano, E. J. Christensen, G. A. Farneth, D. C. Fuls,
   A. R. Gibbs, A. D. Grauer, H. Gröller, J. A. Johnson, R. A. Kowalski, S.
   M. Larson, G. J. Leonard, D. Rankin, R. L. Seaman, F. C. Shelly. 1.5-m
   reflector + 10K CCD.
(H06) RAS Observatory, Mayhill  (N32.903325 W105.528700)  US/New
   Mexico.  Observers E. Guido, G. Sostero, V. Gonano, L. Donato.
(I52) Steward Observatory, Mt. Lemmon Station  (N32.442547 W110.788920)
   US/Arizona.  Observers T. A. Pruyne, B. M. Africano, E. J. Christensen, G.
   A. Farneth, D. C. Fuls, A. R. Gibbs, A. D. Grauer, H. Gröller, J. A.
   Johnson, R. A. Kowalski, S. M. Larson, G. J. Leonard, D. Rankin, R. L.
   Seaman, F. C. Shelly. 1.0-m reflector + CCD.
(K61) Rokycany Observatory  (N49.751403 E13.602600)  Czech Republic.
   Observer M. Adamovsky. 0.51-m f/6.8 reflector + CCD.
(K63) G. Pascoli Observatory, Castelvecchio Pascoli  (N44.082410 E10.462000)
   Italy.
(L01) Višnjan Observatory, Tičan  (N45.290900 E13.749300)  Croatia.
   Observers K. Korlević, E. Pettarin. Measurer E. Pettarin. 1.0-m f/2.9
   reflector + CCD.
(L06) Sormano 2 Observatory, Bellagio Via Lattea  (N45.970103 E9.254030)
   Italy.
(L07) Osservatorio Salvatore di Giacomo, Agerola  (N40.623927 E14.564060)
   Italy.
(N51) GROWTH India Telescope, IAO, Hanle  (N32.779244 E78.964610)  India.

Orbital elements:  C3XUF62
   Perihelion 2021 Jun 23.604453 +/- 0.0674 TT = 14:30:24 (JD 2459389.104453)
Epoch 2020 Nov 26.0 TT = JDT 2459179.5   Ju: 0.4218   Sa: 0.8896
M 347.88622539 +/- 0.0011           (J2000 ecliptic)          AutoNEOCP
n   0.05779349 +/- 1.4e-5           Peri.  313.09178 +/- 0.019
a   6.62547054 +/- 0.00107          Node   139.98429 +/- 0.0023
e   0.5098784 +/- 0.000125          Incl.    9.39372 +/- 0.000056
P  17.05                   H 15.2   G  0.15   U  5.3  
q 3.24728614 +/- 0.000311    Q 10.0036549 +/- 0.00244
From 89 observations 2020 Aug. 29-Nov. 26; mean residual 0".43
Residuals in arcseconds: 
200829 G96  .13+  .10-    201116 I52  .29+  .69-    201118 204  .18+  .24+    
200829 G96  .69+  .21+    201116 I52  .00   .26+    201118 204  .07-  .35-    
200829 G96  .22-  .08-    201116 I52  .55+  .47-    201119 204  .18-  .04-    
200829 G96  .25-  .73+    201116 I52  .89+  .19+    201120 858  .11-  .06-    
200921 G96  .68-  .04+    201117 H06  .00   .30-    201120 858  .11-  .09-    
200921 G96  .07-  .26+    201117 H06  .02-  .23-    201120 858  .29-  .42-    
200921 G96  .25+  .22-    201117 711  .51+  .76+    201120 691  .30-  .26+    
201014 F52  .13-  .06+    201117 711  .47+  .78+    201120 691  .34-  .39+    
201014 F52  .13-  .10+    201117 H06  .42+  .36-    201120 691  .28-  .08-    
201014 F52  .11+  .02-    201117 711  .62+  .62+    201121 L06  .76-  .41-    
201014 F52  .02+  .08-    201117 N51  .00   .02-    201121 L06  .48-  .44-    
201016 G96  .09+  .20-    201117 N51  .04-  .22-    201121 215  .14+  .29-    
201016 G96  .31-  .14-    201117 N51  .02+  .21-    201121 B49  .03+  1.5+    
201016 G96  .10-  .23+    201117 N51  .00   .28-    201121 246  .08+  1.2+    
201016 G96  .35-  .19+    201117 N51  .02-  .26-    201121 246  .16+  1.2+    
201019 F52  .26+  .22-    201117 L01  .34-  .02-    201121 215  .13-  .10-    
201019 F52  .02-  .12-    201117 L01  .41+  .02-    201121 246  .13-  .27+    
201019 F52  .14+  .35-    201118 711  .09+  1.4+    201121 246  1.2-  .31-    
201024 F52  .33+  .07-    201118 711  .39-  .69+    201121 246  1.2-  .47+    
201024 F52  .14-  .11-    201118 711  .50+  .57+    201121 215  .54-  .10-    
201024 F52  .29-  .03-    201118 246  .00   .31+    201121 B49  .29+  .61+    
201024 F52  .00   .37-    201118 246  .25-  .81-    201123 L07  .07+  .14-    
201105 G96  .32-  .36-    201118 246  .33+  .97+    201123 L07  .22-  .12+    
201105 G96  .59+  .07-    201118 246  .17+  .46+    201125 G96  .14+  .46-    
201105 G96  .02-  .02+    201118 246  .22-  .10-    201125 G96  .32-  .07+    
201105 G96  .32-  .39-    201118 K63  1.1+  .02+    201125 G96  .12+  .11+    
201116 G96  .08-  .15-    201118 K61  .34+  1.1-    201125 G96  .04-  .04+    
201116 G96  .18-  .31-    201118 K61  .33+  1.2-    201126 858  .21-  .43-    
201116 G96  .18+  .26-    201118 K61  .35+  1.0-    201126 858  .19+  .12+    
201116 G96  .07-  .12-    201118 K63  .18+  .41+    

Ephemerides (geocentric):
Date (UTC) HH   RA              Dec         delta   r     elong  mag " sig PA
---- -- -- --  -------------   -----------  ------ ------ -----  --- ---- ---
2020 11 30 17  03 12 38.671   +04 41 15.32  2.6084 3.5271 155.1 20.5 .028 177
2020 11 30 18  03 12 37.401   +04 41 13.88  2.6085 3.5270 155.0 20.5 .028 177
2020 11 30 19  03 12 36.131   +04 41 12.47  2.6086 3.5269 155.0 20.5 .028 177
2020 11 30 20  03 12 34.862   +04 41 11.06  2.6088 3.5268 154.9 20.5 .028 177
2020 11 30 21  03 12 33.594   +04 41 09.67  2.6089 3.5267 154.9 20.5 .028 177
2020 11 30 22  03 12 32.327   +04 41 08.29  2.6090 3.5266 154.9 20.5 .029 177
2020 11 30 23  03 12 31.061   +04 41 06.92  2.6091 3.5265 154.8 20.5 .029 177
2020 12 01 00  03 12 29.796   +04 41 05.56  2.6092 3.5264 154.8 20.5 .029 178
2020 12 01 01  03 12 28.532   +04 41 04.21  2.6094 3.5262 154.7 20.5 .029 178
2020 12 01 02  03 12 27.268   +04 41 02.88  2.6095 3.5261 154.7 20.5 .029 178
2020 12 01 03  03 12 26.006   +04 41 01.56  2.6096 3.5260 154.7 20.5 .029 178
2020 12 01 04  03 12 24.745   +04 41 00.25  2.6097 3.5259 154.6 20.5 .029 178
2020 12 01 05  03 12 23.484   +04 40 58.95  2.6098 3.5258 154.6 20.5 .029 178
2020 12 01 06  03 12 22.225   +04 40 57.67  2.6100 3.5257 154.5 20.5 .030 178
2020 12 01 07  03 12 20.966   +04 40 56.39  2.6101 3.5256 154.5 20.5 .030 178
2020 12 01 08  03 12 19.709   +04 40 55.13  2.6102 3.5255 154.5 20.5 .030 178
2020 12 01 09  03 12 18.452   +04 40 53.88  2.6103 3.5254 154.4 20.5 .030 178
2020 12 01 10  03 12 17.197   +04 40 52.65  2.6104 3.5253 154.4 20.5 .030 178
2020 12 01 11  03 12 15.942   +04 40 51.42  2.6106 3.5252 154.3 20.5 .030 179
2020 12 01 12  03 12 14.688   +04 40 50.21  2.6107 3.5251 154.3 20.5 .030 179
2020 12 01 13  03 12 13.436   +04 40 49.01  2.6108 3.5250 154.2 20.5 .030 179
2020 12 01 14  03 12 12.184   +04 40 47.82  2.6109 3.5249 154.2 20.5 .031 179
2020 12 01 15  03 12 10.933   +04 40 46.65  2.6111 3.5248 154.2 20.5 .031 179
2020 12 01 16  03 12 09.684   +04 40 45.48  2.6112 3.5247 154.1 20.5 .031 179
2020 12 01 17  03 12 08.435   +04 40 44.33  2.6113 3.5246 154.1 20.5 .031 179
2020 12 01 18  03 12 07.187   +04 40 43.19  2.6114 3.5244 154.0 20.5 .031 179
2020 12 01 19  03 12 05.940   +04 40 42.07  2.6116 3.5243 154.0 20.5 .031 179
2020 12 01 20  03 12 04.694   +04 40 40.95  2.6117 3.5242 154.0 20.5 .031 179
2020 12 01 21  03 12 03.449   +04 40 39.85  2.6118 3.5241 153.9 20.5 .031 179
2020 12 01 22  03 12 02.206   +04 40 38.76  2.6120 3.5240 153.9 20.5 .032 179
2020 12 01 23  03 12 00.963   +04 40 37.68  2.6121 3.5239 153.8 20.5 .032   0
2020 12 02 00  03 11 59.721   +04 40 36.62  2.6122 3.5238 153.8 20.5 .032   0
2020 12 02 01  03 11 58.480   +04 40 35.56  2.6123 3.5237 153.8 20.5 .032   0
2020 12 02 02  03 11 57.240   +04 40 34.52  2.6125 3.5236 153.7 20.5 .032   0
2020 12 02 03  03 11 56.001   +04 40 33.49  2.6126 3.5235 153.7 20.5 .032   0
2020 12 02 04  03 11 54.763   +04 40 32.47  2.6127 3.5234 153.6 20.5 .032   0
2020 12 02 05  03 11 53.526   +04 40 31.47  2.6129 3.5233 153.6 20.5 .033   0
2020 12 02 06  03 11 52.291   +04 40 30.48  2.6130 3.5232 153.6 20.5 .033   0
2020 12 02 07  03 11 51.056   +04 40 29.50  2.6131 3.5231 153.5 20.5 .033   0
2020 12 02 08  03 11 49.822   +04 40 28.53  2.6133 3.5230 153.5 20.5 .033   0
2020 12 02 09  03 11 48.589   +04 40 27.57  2.6134 3.5229 153.4 20.5 .033   0
2020 12 02 10  03 11 47.357   +04 40 26.63  2.6135 3.5228 153.4 20.5 .033   0
2020 12 02 11  03 11 46.126   +04 40 25.70  2.6137 3.5226 153.4 20.5 .033   1
2020 12 02 12  03 11 44.897   +04 40 24.78  2.6138 3.5225 153.3 20.5 .033   1
2020 12 02 13  03 11 43.668   +04 40 23.87  2.6139 3.5224 153.3 20.5 .034   1
2020 12 02 14  03 11 42.440   +04 40 22.98  2.6141 3.5223 153.2 20.5 .034   1
2020 12 02 15  03 11 41.213   +04 40 22.09  2.6142 3.5222 153.2 20.5 .034   1
2020 12 02 16  03 11 39.988   +04 40 21.22  2.6144 3.5221 153.2 20.5 .034   1